This is the latest recevied weather packets stored in our database for station/object 9W3FAB-3. If no packets are shown the sender has not sent any weather packets the latest 10 day(s).
| Time | Temp. | Humidity | Pressure | Rain* | Wind** | Luminosity | Snow |
|---|---|---|---|---|---|---|---|
| 1777568059 | 26.11° C | 71% | 1009.6 hPa | - | - | - | - |
| 1777567162 | 26.11° C | 71% | 1009.8 hPa | - | - | - | - |
| 1777566258 | 26.11° C | 70% | 1009.7 hPa | - | - | - | - |
| 1777564456 | 26.11° C | 69% | 1009.6 hPa | - | - | - | - |
| 1777559124 | 26.11° C | 67% | 1009.5 hPa | - | - | - | - |
| 1777557321 | 26.11° C | 66% | 1009.2 hPa | - | - | - | - |
| 1777554618 | 26.11° C | 64% | 1008.2 hPa | - | - | - | - |
| 1777553717 | 26.11° C | 64% | 1008.1 hPa | - | - | - | - |
| 1777551916 | 26.11° C | 63% | 1007.7 hPa | - | - | - | - |
| 1777549215 | 26.11° C | 63% | 1007.4 hPa | - | - | - | - |
| 1777547412 | 25.56° C | 63% | 1006.9 hPa | - | - | - | - |
| 1777544694 | 25.56° C | 63% | 1006.4 hPa | - | - | - | - |
| 1777543794 | 25.56° C | 62% | 1006 hPa | - | - | - | - |
| 1777542893 | 25.56° C | 61% | 1006.3 hPa | - | - | - | - |
| 1777541992 | 25.56° C | 61% | 1006.1 hPa | - | - | - | - |
| 1777541091 | 25° C | 61% | 1005.8 hPa | - | - | - | - |
| 1777540190 | 25° C | 59% | 1005.8 hPa | - | - | - | - |
| 1777539289 | 23.33° C | 63% | 1006.1 hPa | - | - | - | - |
| 1777537488 | 24.44° C | 57% | 1006 hPa | - | - | - | - |
| 1777536587 | 24.44° C | 56% | 1006.1 hPa | - | - | - | - |
| 1777535686 | 24.44° C | 55% | 1006.1 hPa | - | - | - | - |
| 1777534785 | 24.44° C | 56% | 1006.4 hPa | - | - | - | - |
| 1777533884 | 25° C | 57% | 1006.1 hPa | - | - | - | - |
| 1777532991 | 25° C | 60% | 1006.2 hPa | - | - | - | - |
| 1777531170 | 25° C | 70% | 1006.4 hPa | - | - | - | - |
* Rain since midnight (hover to see other rain measurements)
** Current wind speed in m/s (hover to see current wind gust speed)